Hourly Data Report for October 01, 2014

All times are specified in Local Standard Time (LST). Add 1 hour to adjust for Daylight Saving Time where and when it is observed.

ST LEONARD CS
NEW BRUNSWICK

47°09'28.050" N
67°49'55.014" W
245.00 m
810I001
71019
WIY

Download Data

Hourly Data (October 2014)
Hourly Data Report for October 1, 2014
Temp Definition
°C
Dew Point Temp Definition
°C
Rel Hum Definition
%
Wind Dir Definition
10's deg

Wind Spd Definition
km/h
Visibility Definition
km
Stn Press Definition
kPa
Hmdx Definition


Wind Chill Definition


Weather Definition


TIME
00:00 7.4 7.1 98 15 LegendMM   99.07     LegendNANA
01:00 7.5 7.3 98 23 LegendMM   99.09     LegendNANA
02:00 7.6 7.2 98   0   99.09     LegendNANA
03:00 7.4 6.9 97 2 1   99.14     LegendNANA
04:00 6.9 6.5 97 0 1   99.15     LegendNANA
05:00 6.5 6.2 98 2 2   99.18     LegendNANA
06:00 5.9 5.6 98 2 2   99.23     LegendNANA
07:00 4.7 4.3 97 0 1   99.31     LegendNANA
08:00 5.0 4.6 97 2 2   99.34     LegendNANA
09:00 5.6 4.5 93 4 3   99.37     LegendNANA
10:00 6.5 4.9 89 7 1   99.42     LegendNANA
11:00 8.0 5.5 84 5 2   99.45     LegendNANA
12:00 9.6 6.3 80 2 1   99.38     LegendNANA
13:00 11.7 7.0 73   0   99.31     LegendNANA
14:00 13.6 7.0 64 1 3   99.29     LegendNANA
15:00 14.8 7.8 63 36 3   99.26     LegendNANA
16:00 15.2 7.6 60 35 4   99.22     LegendNANA
17:00 14.8 6.7 58 2 2   99.23     LegendNANA
18:00 12.8 6.6 66 1 1   99.27     LegendNANA
19:00 9.9 6.4 79 1 1   99.34     LegendNANA
20:00 6.7 5.5 92 4 1   99.39     LegendNANA
21:00 8.2 6.7 90 13 5   99.47     LegendNANA
22:00 7.0 6.0 93 13 2   99.50     LegendNANA
23:00 5.8 4.7 92 0 1   99.52     LegendNANA

Notes on Data Quality.

Legend

  • E = Estimated
  • M = Missing
  • NA = Not Available
  • ‡ = Partner data that is not subject to review by the National Climate Archives
Date modified: